Ft Lauderdale, FL

4:05 AM EST on December 15, 2017 (GMT -0500)
Fort Lauderdale-Hollywood International

Weather History for KFLL - March, 2012

Change the Weather History Date:

Thursday, March 29, 2012

  Actual Average Record
Temperature  
Mean Temperature 74 °F 74 °F  
Max Temperature 79 °F 81 °F 90 °F (1935)
Min Temperature 69 °F 67 °F 50 °F (1925)
Degree Days  
Heating Degree Days 0 0  
Month to date heating degree days 0 7  
Since 1 July heating degree days 65 109  
Cooling Degree Days 9 9  
Month to date cooling degree days 311 236  
Year to date cooling degree days 729 592  
Growing Degree Days 24 (Base 50)    
Moisture  
Dew Point 59 °F    
Average Humidity 61    
Maximum Humidity 73    
Minimum Humidity 48    
Precipitation  
Precipitation 0.00 in 0.13 in 4.50 in (1940)
Month to date precipitation 1.63 3.09  
Year to date precipitation 3.28 9.68  
Snow  
Snow 0.00 in - - ()
Month to date snowfall 0.0  
Since 1 July snowfall 0.0  
Snow Depth 0.00 in    
Sea Level Pressure  
Sea Level Pressure 30.04 in    
Wind  
Wind Speed 7 mph (SE)    
Max Wind Speed 14 mph    
Max Gust Speed 23 mph    
Visibility 10 miles    
Events      
T = Trace of Precipitation, MM = Missing Value Source: NWS Daily Summary

Daily Weather History Graph

Daily Weather History Graph

Search for Another Location

Airport or City:

Trip Planner

Search our weather history database for the weather conditions in past years. The results will help you decide how hot, cold, wet, or windy it might be!

Date:

Astronomy

Mar. 29, 2012 Rise Set
Actual Time 7:14 AM EDT 7:36 PM EDT
Civil Twilight 6:51 AM EDT 7:59 PM EDT
Nautical Twilight 6:24 AM EDT 8:26 PM EDT
Astronomical Twilight 5:56 AM EDT 8:53 PM EDT
Moon 11:50 AM EDT (3/29) 12:57 AM EDT (3/29)
Length of Visible Light 13h 08m
Length of Day
12h 21m
Waxing Crescent, 39% of the Moon is Illuminated
Mar 29
Waxing Crescent
Mar 30
First Quarter
Apr 6
Full
Apr 13
Last Quarter
Apr 21
New

Hourly Weather History & Observations

Time (EDT) Temp. Dew Point Humidity Pressure Visibility Wind Dir Wind Speed Gust Speed Precip Events Conditions
12:53 AM 72.0 °F 61.0 °F 68% 30.08 in 10.0 mi SE 10.4 mph - N/A   Partly Cloudy
1:53 AM 72.0 °F 61.0 °F 68% 30.06 in 10.0 mi SE 9.2 mph - N/A   Scattered Clouds
2:53 AM 72.0 °F 61.0 °F 68% 30.04 in 10.0 mi SE 9.2 mph - N/A   Scattered Clouds
3:53 AM 71.1 °F 60.1 °F 68% 30.02 in 10.0 mi SSE 8.1 mph - N/A   Partly Cloudy
4:53 AM 71.1 °F 61.0 °F 70% 30.01 in 10.0 mi SSE 6.9 mph - N/A   Scattered Clouds
5:53 AM 70.0 °F 60.1 °F 71% 30.02 in 10.0 mi Calm Calm - N/A   Scattered Clouds
6:53 AM 70.0 °F 60.1 °F 71% 30.04 in 10.0 mi SSE 4.6 mph - N/A   Scattered Clouds
7:53 AM 71.1 °F 61.0 °F 70% 30.05 in 10.0 mi Calm Calm - N/A   Scattered Clouds
8:53 AM 73.0 °F 60.1 °F 64% 30.08 in 10.0 mi SSE 3.5 mph - N/A   Mostly Cloudy
9:53 AM 75.9 °F 60.1 °F 58% 30.08 in 10.0 mi ESE 8.1 mph - N/A   Scattered Clouds
10:53 AM 75.9 °F 60.1 °F 58% 30.09 in 10.0 mi SE 6.9 mph - N/A   Partly Cloudy
11:53 AM 78.1 °F 60.1 °F 54% 30.09 in 10.0 mi ESE 8.1 mph - N/A   Partly Cloudy
12:53 PM 78.1 °F 59.0 °F 52% 30.07 in 10.0 mi East 11.5 mph - N/A   Clear
1:53 PM 78.1 °F 57.9 °F 50% 30.05 in 10.0 mi SSE 8.1 mph - N/A   Partly Cloudy
2:53 PM 78.1 °F 59.0 °F 52% 30.03 in 10.0 mi SE 11.5 mph - N/A   Partly Cloudy
3:53 PM 77.0 °F 59.0 °F 54% 30.01 in 10.0 mi ESE 9.2 mph 16.1 mph N/A   Partly Cloudy
4:53 PM 78.1 °F 60.1 °F 54% 30.00 in 10.0 mi SE 10.4 mph - N/A   Partly Cloudy
5:53 PM 75.9 °F 57.9 °F 54% 30.00 in 10.0 mi ESE 9.2 mph - N/A   Partly Cloudy
6:53 PM 73.9 °F 59.0 °F 59% 30.01 in 10.0 mi SE 10.4 mph - N/A   Partly Cloudy
7:53 PM 73.0 °F 57.9 °F 59% 30.02 in 10.0 mi SE 6.9 mph - N/A   Clear
8:53 PM 72.0 °F 57.0 °F 59% 30.03 in 10.0 mi SE 4.6 mph - N/A   Clear
9:53 PM 71.1 °F 57.9 °F 63% 30.04 in 10.0 mi SE 5.8 mph - N/A   Clear
10:53 PM 71.1 °F 57.9 °F 63% 30.04 in 10.0 mi SE 6.9 mph - N/A   Clear
11:53 PM 71.1 °F 57.9 °F 63% 30.03 in 10.0 mi SE 8.1 mph - N/A   Clear